Time,TemperatureF,DewpointF,PressureIn,WindDirection,WindDirectionDegrees,WindSpeedMPH,WindSpeedGustMPH,Humidity,HourlyPrecipIn,Conditions,Clouds,dailyrainin,SoftwareType,DateUTC
2013-08-05 00:01:00,60.8,4.0,29.48,North,0,0.0,0.0,1,0.00,,,0.00,WUHU216HW,2013-08-05 04:01:00,
2013-08-05 00:02:00,60.7,3.8,29.48,North,0,0.0,0.0,1,0.00,,,0.00,WUHU216HW,2013-08-05 04:02:00,
2013-08-05 00:08:00,60.5,3.7,29.48,North,0,0.0,0.0,1,0.00,,,0.00,WUHU216HW,2013-08-05 04:08:00,
2013-08-05 00:13:00,60.5,3.7,29.48,North,0,0.0,0.0,1,0.00,,,0.00,WUHU216HW,2013-08-05 04:13:00,
2013-08-05 00:17:00,60.5,3.7,29.48,North,0,0.0,0.0,1,0.00,,,0.00,WUHU216HW,2013-08-05 04:17:00,
2013-08-05 00:23:00,60.5,3.7,29.48,North,0,0.0,0.0,1,0.00,,,0.00,WUHU216HW,2013-08-05 04:23:00,
2013-08-05 00:28:00,60.5,3.7,29.48,North,0,0.0,0.0,1,0.00,,,0.00,WUHU216HW,2013-08-05 04:28:00,
2013-08-05 00:33:00,60.5,3.7,29.48,North,0,0.0,0.0,1,0.00,,,0.00,WUHU216HW,2013-08-05 04:33:00,
2013-08-05 00:38:00,60.7,3.8,29.48,North,0,0.0,0.0,1,0.00,,,0.00,WUHU216HW,2013-08-05 04:38:00,
2013-08-05 00:43:00,60.7,3.8,29.48,North,0,0.0,0.0,1,0.00,,,0.00,WUHU216HW,2013-08-05 04:43:00,
2013-08-05 00:48:00,60.8,4.0,29.48,North,0,0.0,0.0,1,0.00,,,0.00,WUHU216HW,2013-08-05 04:48:00,
2013-08-05 00:53:00,60.8,4.0,29.48,North,0,0.0,0.0,1,0.00,,,0.00,WUHU216HW,2013-08-05 04:53:00,
2013-08-05 00:58:00,60.8,4.0,29.48,North,0,0.0,0.0,1,0.00,,,0.00,WUHU216HW,2013-08-05 04:58:00,
2013-08-05 01:03:00,60.8,4.0,29.48,North,0,0.0,0.0,1,0.00,,,0.00,WUHU216HW,2013-08-05 05:03:00,
2013-08-05 01:08:00,60.7,3.8,29.48,North,0,0.0,0.0,1,0.00,,,0.00,WUHU216HW,2013-08-05 05:08:00,
2013-08-05 01:13:00,60.5,3.7,29.48,North,0,0.0,0.0,1,0.00,,,0.00,WUHU216HW,2013-08-05 05:13:00,
2013-08-05 01:18:00,60.3,3.5,29.48,North,0,0.0,0.0,1,0.00,,,0.00,WUHU216HW,2013-08-05 05:18:00,
2013-08-05 01:23:00,60.1,3.4,29.48,North,0,0.0,0.0,1,0.00,,,0.00,WUHU216HW,2013-08-05 05:23:00,
2013-08-05 01:28:00,60.1,3.4,29.48,North,0,0.0,0.0,1,0.00,,,0.00,WUHU216HW,2013-08-05 05:28:00,
2013-08-05 01:33:00,59.9,3.2,29.48,North,0,0.0,0.0,1,0.00,,,0.00,WUHU216HW,2013-08-05 05:33:00,
2013-08-05 01:39:00,59.8,3.1,29.48,North,0,0.0,0.0,1,0.00,,,0.00,WUHU216HW,2013-08-05 05:39:00,
2013-08-05 01:44:00,59.6,3.0,29.48,North,0,0.0,0.0,1,0.00,,,0.00,WUHU216HW,2013-08-05 05:44:00,
2013-08-05 01:49:00,59.4,2.8,29.48,North,0,0.0,0.0,1,0.00,,,0.00,WUHU216HW,2013-08-05 05:49:00,
2013-08-05 01:54:00,59.2,2.7,29.47,North,0,0.0,0.0,1,0.00,,,0.00,WUHU216HW,2013-08-05 05:54:00,
2013-08-05 01:59:00,59.0,2.5,29.48,North,0,0.0,0.0,1,0.00,,,0.00,WUHU216HW,2013-08-05 05:59:00,
2013-08-05 02:04:00,59.0,2.5,29.47,North,0,0.0,0.0,1,0.00,,,0.00,WUHU216HW,2013-08-05 06:04:00,
2013-08-05 02:09:00,58.9,2.3,29.47,North,0,0.0,0.0,1,0.00,,,0.00,WUHU216HW,2013-08-05 06:09:00,
2013-08-05 02:14:00,58.7,2.3,29.47,North,0,0.0,0.0,1,0.00,,,0.00,WUHU216HW,2013-08-05 06:14:00,
2013-08-05 02:19:00,58.7,2.3,29.48,North,0,0.0,0.0,1,0.00,,,0.00,WUHU216HW,2013-08-05 06:19:00,
2013-08-05 02:24:00,58.7,2.3,29.47,North,0,0.0,0.0,1,0.00,,,0.00,WUHU216HW,2013-08-05 06:24:00,
2013-08-05 02:29:00,58.5,2.1,29.47,North,0,0.0,0.0,1,0.00,,,0.00,WUHU216HW,2013-08-05 06:29:00,
2013-08-05 02:34:00,58.5,2.1,29.47,North,0,0.0,0.0,1,0.00,,,0.00,WUHU216HW,2013-08-05 06:34:00,
2013-08-05 02:39:00,58.5,2.1,29.47,North,0,0.0,0.0,1,0.00,,,0.00,WUHU216HW,2013-08-05 06:39:00,
2013-08-05 02:44:00,58.5,2.1,29.47,North,0,0.0,0.0,1,0.00,,,0.00,WUHU216HW,2013-08-05 06:44:00,
2013-08-05 02:49:00,58.7,2.3,29.47,North,0,0.0,0.0,1,0.00,,,0.00,WUHU216HW,2013-08-05 06:49:00,
2013-08-05 02:54:00,58.7,2.3,29.47,North,0,0.0,0.0,1,0.00,,,0.00,WUHU216HW,2013-08-05 06:54:00,
2013-08-05 02:59:00,58.9,2.3,29.47,North,0,0.0,0.0,1,0.00,,,0.00,WUHU216HW,2013-08-05 06:59:00,
2013-08-05 03:04:00,59.0,2.5,29.47,North,0,0.0,0.0,1,0.00,,,0.00,WUHU216HW,2013-08-05 07:04:00,
2013-08-05 03:09:00,59.4,2.8,29.47,North,0,0.0,0.0,1,0.00,,,0.00,WUHU216HW,2013-08-05 07:09:00,
2013-08-05 03:14:00,59.6,3.0,29.47,North,0,0.0,0.0,1,0.00,,,0.00,WUHU216HW,2013-08-05 07:14:00,
2013-08-05 03:20:00,59.8,3.1,29.47,North,0,0.0,0.0,1,0.00,,,0.00,WUHU216HW,2013-08-05 07:20:00,
2013-08-05 03:24:00,59.8,3.1,29.47,North,0,0.0,0.0,1,0.00,,,0.00,WUHU216HW,2013-08-05 07:24:00,
2013-08-05 03:30:00,59.9,3.2,29.47,North,0,0.0,0.0,1,0.00,,,0.00,WUHU216HW,2013-08-05 07:30:00,
2013-08-05 03:35:00,59.9,3.2,29.47,North,0,0.0,0.0,1,0.00,,,0.00,WUHU216HW,2013-08-05 07:35:00,
2013-08-05 03:40:00,59.9,3.2,29.47,North,0,0.0,0.0,1,0.00,,,0.00,WUHU216HW,2013-08-05 07:40:00,
2013-08-05 03:45:00,59.9,3.2,29.47,North,0,0.0,0.0,1,0.00,,,0.00,WUHU216HW,2013-08-05 07:45:00,
2013-08-05 03:50:00,59.9,3.2,29.47,North,0,0.0,0.0,1,0.00,,,0.00,WUHU216HW,2013-08-05 07:50:00,
2013-08-05 03:55:00,59.8,3.1,29.47,North,0,0.0,0.0,1,0.00,,,0.00,WUHU216HW,2013-08-05 07:55:00,
2013-08-05 04:00:00,59.8,3.1,29.47,North,0,0.0,0.0,1,0.00,,,0.00,WUHU216HW,2013-08-05 08:00:00,
2013-08-05 04:06:00,59.8,3.1,29.47,North,0,0.0,0.0,1,0.00,,,0.00,WUHU216HW,2013-08-05 08:06:00,
2013-08-05 04:11:00,59.8,3.1,29.47,North,0,0.0,0.0,1,0.00,,,0.00,WUHU216HW,2013-08-05 08:11:00,
2013-08-05 04:16:00,59.9,3.2,29.47,North,0,0.0,0.0,1,0.00,,,0.00,WUHU216HW,2013-08-05 08:16:00,
2013-08-05 04:21:00,59.9,3.2,29.47,North,0,0.0,0.0,1,0.00,,,0.00,WUHU216HW,2013-08-05 08:21:00,
2013-08-05 04:26:00,60.1,3.4,29.47,North,0,0.0,0.0,1,0.00,,,0.00,WUHU216HW,2013-08-05 08:26:00,
2013-08-05 04:31:00,60.1,3.4,29.47,North,0,0.0,0.0,1,0.00,,,0.00,WUHU216HW,2013-08-05 08:31:00,
2013-08-05 04:36:00,60.3,3.5,29.47,North,0,0.0,0.0,1,0.00,,,0.00,WUHU216HW,2013-08-05 08:36:00,
2013-08-05 04:41:00,60.3,3.5,29.47,North,0,0.0,0.0,1,0.00,,,0.00,WUHU216HW,2013-08-05 08:41:00,
2013-08-05 04:46:00,60.3,3.5,29.47,North,0,0.0,0.0,1,0.00,,,0.00,WUHU216HW,2013-08-05 08:46:00,
2013-08-05 04:52:00,60.5,3.7,29.47,North,0,0.0,0.0,1,0.00,,,0.00,WUHU216HW,2013-08-05 08:52:00,
2013-08-05 04:56:00,60.5,3.7,29.46,North,0,0.0,0.0,1,0.00,,,0.00,WUHU216HW,2013-08-05 08:56:00,
2013-08-05 05:02:00,60.7,3.8,29.46,North,0,0.0,0.0,1,0.00,,,0.00,WUHU216HW,2013-08-05 09:02:00,
2013-08-05 05:07:00,60.7,3.8,29.46,North,0,0.0,0.0,1,0.00,,,0.00,WUHU216HW,2013-08-05 09:07:00,
2013-08-05 05:12:00,60.8,4.0,29.46,North,0,0.0,0.0,1,0.00,,,0.00,WUHU216HW,2013-08-05 09:12:00,
2013-08-05 05:17:00,60.8,4.0,29.46,North,0,0.0,0.0,1,0.00,,,0.00,WUHU216HW,2013-08-05 09:17:00,
2013-08-05 05:22:00,60.8,4.0,29.46,North,0,0.0,0.0,1,0.00,,,0.00,WUHU216HW,2013-08-05 09:22:00,
2013-08-05 05:28:00,60.8,4.0,29.46,North,0,0.0,0.0,1,0.00,,,0.00,WUHU216HW,2013-08-05 09:28:00,
2013-08-05 05:33:00,60.8,4.0,29.46,North,0,0.0,0.0,1,0.00,,,0.00,WUHU216HW,2013-08-05 09:33:00,
2013-08-05 05:38:00,60.8,4.0,29.46,North,0,0.0,0.0,1,0.00,,,0.00,WUHU216HW,2013-08-05 09:38:00,
2013-08-05 05:43:00,60.8,4.0,29.46,North,0,0.0,0.0,1,0.00,,,0.00,WUHU216HW,2013-08-05 09:43:00,
2013-08-05 05:48:00,60.7,3.8,29.46,North,0,0.0,0.0,1,0.00,,,0.00,WUHU216HW,2013-08-05 09:48:00,
2013-08-05 05:53:00,60.5,3.7,29.46,North,0,0.0,0.0,1,0.00,,,0.00,WUHU216HW,2013-08-05 09:53:00,
2013-08-05 05:59:00,60.5,3.7,29.45,North,0,0.0,0.0,1,0.00,,,0.00,WUHU216HW,2013-08-05 09:59:00,
2013-08-05 06:04:00,60.3,3.5,29.46,North,0,0.0,0.0,1,0.00,,,0.00,WUHU216HW,2013-08-05 10:04:00,
2013-08-05 06:10:00,60.1,3.4,29.46,North,0,0.0,0.0,1,0.00,,,0.00,WUHU216HW,2013-08-05 10:10:00,
2013-08-05 06:15:00,59.9,3.2,29.45,North,0,0.0,0.0,1,0.00,,,0.00,WUHU216HW,2013-08-05 10:15:00,
2013-08-05 06:20:00,59.6,3.0,29.45,North,0,0.0,0.0,1,0.00,,,0.00,WUHU216HW,2013-08-05 10:20:00,
2013-08-05 06:25:00,59.4,2.8,29.45,North,0,0.0,0.0,1,0.00,,,0.00,WUHU216HW,2013-08-05 10:25:00,
2013-08-05 06:30:00,59.2,2.7,29.46,North,0,0.0,0.0,1,0.00,,,0.00,WUHU216HW,2013-08-05 10:30:00,
2013-08-05 06:35:00,59.0,2.5,29.46,North,0,0.0,0.0,1,0.00,,,0.00,WUHU216HW,2013-08-05 10:35:00,
2013-08-05 06:41:00,58.9,2.3,29.45,North,0,0.0,0.0,1,0.00,,,0.00,WUHU216HW,2013-08-05 10:41:00,
2013-08-05 06:45:00,58.7,2.3,29.46,North,0,0.0,0.0,1,0.00,,,0.00,WUHU216HW,2013-08-05 10:45:00,
2013-08-05 06:51:00,58.5,2.1,29.46,North,0,0.0,0.0,1,0.00,,,0.00,WUHU216HW,2013-08-05 10:51:00,
2013-08-05 06:56:00,58.3,2.0,29.46,North,0,0.0,0.0,1,0.00,,,0.00,WUHU216HW,2013-08-05 10:56:00,
2013-08-05 07:01:00,58.3,2.0,29.46,North,0,0.0,0.0,1,0.00,,,0.00,WUHU216HW,2013-08-05 11:01:00,
2013-08-05 07:06:00,58.1,1.8,29.46,North,0,0.0,0.0,1,0.00,,,0.00,WUHU216HW,2013-08-05 11:06:00,
2013-08-05 07:10:00,58.0,1.6,29.46,North,0,0.0,0.0,1,0.00,,,0.00,WUHU216HW,2013-08-05 11:10:00,
2013-08-05 07:16:00,58.1,1.8,29.46,North,0,0.0,0.0,1,0.00,,,0.00,WUHU216HW,2013-08-05 11:16:00,
2013-08-05 07:21:00,58.1,1.8,29.46,North,0,0.0,0.0,1,0.00,,,0.00,WUHU216HW,2013-08-05 11:21:00,
2013-08-05 07:26:00,58.1,1.8,29.46,North,0,0.0,0.0,1,0.00,,,0.00,WUHU216HW,2013-08-05 11:26:00,
2013-08-05 07:32:00,58.3,2.0,29.46,North,0,0.0,0.0,1,0.00,,,0.00,WUHU216HW,2013-08-05 11:32:00,
2013-08-05 07:37:00,58.5,2.1,29.46,North,0,0.0,0.0,1,0.00,,,0.00,WUHU216HW,2013-08-05 11:37:00,
2013-08-05 07:42:00,58.7,2.3,29.46,North,0,0.0,0.0,1,0.00,,,0.00,WUHU216HW,2013-08-05 11:42:00,
2013-08-05 07:47:00,59.0,2.5,29.46,North,0,0.0,0.0,1,0.00,,,0.00,WUHU216HW,2013-08-05 11:47:00,
2013-08-05 07:52:00,59.6,3.0,29.47,North,0,0.0,0.0,1,0.00,,,0.00,WUHU216HW,2013-08-05 11:52:00,
2013-08-05 07:57:00,60.1,3.4,29.47,North,0,0.0,0.0,1,0.00,,,0.00,WUHU216HW,2013-08-05 11:57:00,
2013-08-05 08:02:00,60.8,4.0,29.46,North,0,0.0,0.0,1,0.00,,,0.00,WUHU216HW,2013-08-05 12:02:00,
2013-08-05 08:07:00,61.4,4.4,29.46,North,0,0.0,0.0,1,0.00,,,0.00,WUHU216HW,2013-08-05 12:07:00,
2013-08-05 08:12:00,61.6,4.5,29.47,North,0,0.0,0.0,1,0.00,,,0.00,WUHU216HW,2013-08-05 12:12:00,
2013-08-05 08:17:00,61.9,4.9,29.47,North,0,0.0,0.0,1,0.00,,,0.00,WUHU216HW,2013-08-05 12:17:00,
2013-08-05 08:22:00,61.9,4.9,29.47,North,0,0.0,0.0,1,0.00,,,0.00,WUHU216HW,2013-08-05 12:22:00,
2013-08-05 08:27:00,61.9,4.9,29.47,North,0,0.0,0.0,1,0.00,,,0.00,WUHU216HW,2013-08-05 12:27:00,
2013-08-05 08:32:00,62.3,5.1,29.47,North,0,0.0,0.0,1,0.00,,,0.00,WUHU216HW,2013-08-05 12:32:00,
2013-08-05 08:37:00,62.6,5.4,29.47,North,0,0.0,0.0,1,0.00,,,0.00,WUHU216HW,2013-08-05 12:37:00,
2013-08-05 08:43:00,63.2,5.8,29.47,North,0,0.0,0.0,1,0.00,,,0.00,WUHU216HW,2013-08-05 12:43:00,
2013-08-05 08:48:00,63.7,6.1,29.47,North,0,0.0,0.0,1,0.00,,,0.00,WUHU216HW,2013-08-05 12:48:00,
2013-08-05 08:53:00,64.3,6.6,29.47,North,0,0.0,0.0,1,0.00,,,0.00,WUHU216HW,2013-08-05 12:53:00,
2013-08-05 08:58:00,65.0,7.1,29.47,North,0,0.0,0.0,1,0.00,,,0.00,WUHU216HW,2013-08-05 12:58:00,
2013-08-05 09:03:00,65.2,7.2,29.47,North,0,0.0,0.0,1,0.00,,,0.00,WUHU216HW,2013-08-05 13:03:00,
2013-08-05 09:08:00,65.5,7.6,29.47,North,0,0.0,0.0,1,0.00,,,0.00,WUHU216HW,2013-08-05 13:08:00,
2013-08-05 09:14:00,65.9,7.8,29.46,North,0,0.0,0.0,1,0.00,,,0.00,WUHU216HW,2013-08-05 13:14:00,
2013-08-05 09:19:00,66.2,8.1,29.46,North,0,0.0,0.0,1,0.00,,,0.00,WUHU216HW,2013-08-05 13:19:00,
2013-08-05 09:24:00,67.0,8.6,29.46,North,0,0.0,0.0,1,0.00,,,0.00,WUHU216HW,2013-08-05 13:24:00,
2013-08-05 09:29:00,67.3,9.0,29.46,North,0,0.0,0.0,1,0.00,,,0.00,WUHU216HW,2013-08-05 13:29:00,
2013-08-05 09:34:00,67.7,9.3,29.46,North,0,0.0,0.0,1,0.00,,,0.00,WUHU216HW,2013-08-05 13:34:00,
2013-08-05 09:39:00,68.2,9.6,29.46,North,0,0.0,0.0,1,0.00,,,0.00,WUHU216HW,2013-08-05 13:39:00,
2013-08-05 09:44:00,68.9,10.2,29.46,North,0,0.0,0.0,1,0.00,,,0.00,WUHU216HW,2013-08-05 13:44:00,
2013-08-05 09:49:00,69.5,10.5,29.46,North,0,0.0,0.0,1,0.00,,,0.00,WUHU216HW,2013-08-05 13:49:00,
2013-08-05 09:55:00,70.0,11.0,29.45,North,0,0.0,0.0,1,0.00,,,0.00,WUHU216HW,2013-08-05 13:55:00,
2013-08-05 09:59:00,70.4,11.3,29.46,North,0,0.0,0.0,1,0.00,,,0.00,WUHU216HW,2013-08-05 13:59:00,
2013-08-05 10:05:00,71.1,11.8,29.46,North,0,0.0,0.0,1,0.00,,,0.00,WUHU216HW,2013-08-05 14:05:00,
2013-08-05 10:10:00,71.3,12.0,29.45,North,0,0.0,0.0,1,0.00,,,0.00,WUHU216HW,2013-08-05 14:10:00,
2013-08-05 10:15:00,71.8,12.4,29.45,North,0,0.0,0.0,1,0.00,,,0.00,WUHU216HW,2013-08-05 14:15:00,
2013-08-05 10:20:00,72.0,12.5,29.45,North,0,0.0,0.0,1,0.00,,,0.00,WUHU216HW,2013-08-05 14:20:00,
2013-08-05 10:25:00,72.7,13.2,29.45,North,0,0.0,0.0,1,0.00,,,0.00,WUHU216HW,2013-08-05 14:25:00,
2013-08-05 10:30:00,73.1,13.4,29.45,North,0,0.0,0.0,1,0.00,,,0.00,WUHU216HW,2013-08-05 14:30:00,
2013-08-05 10:36:00,73.3,13.5,29.45,North,0,0.0,0.0,1,0.00,,,0.00,WUHU216HW,2013-08-05 14:36:00,
2013-08-05 10:41:00,74.0,14.0,29.45,North,0,0.0,0.0,1,0.00,,,0.00,WUHU216HW,2013-08-05 14:41:00,
2013-08-05 10:46:00,74.5,14.4,29.45,North,0,0.0,0.0,1,0.00,,,0.00,WUHU216HW,2013-08-05 14:46:00,
2013-08-05 10:51:00,74.5,14.4,29.45,North,0,0.0,0.0,1,0.00,,,0.00,WUHU216HW,2013-08-05 14:51:00,
2013-08-05 10:56:00,74.7,14.6,29.44,North,0,0.0,0.0,1,0.00,,,0.00,WUHU216HW,2013-08-05 14:56:00,
2013-08-05 11:02:00,75.4,15.1,29.44,North,0,0.0,0.0,1,0.00,,,0.00,WUHU216HW,2013-08-05 15:02:00,
2013-08-05 11:07:00,75.6,15.2,29.45,North,0,0.0,0.0,1,0.00,,,0.00,WUHU216HW,2013-08-05 15:07:00,
2013-08-05 11:12:00,76.0,15.5,29.45,North,0,0.0,0.0,1,0.00,,,0.00,WUHU216HW,2013-08-05 15:12:00,
2013-08-05 11:17:00,76.1,15.7,29.45,North,0,0.0,0.0,1,0.00,,,0.00,WUHU216HW,2013-08-05 15:17:00,
2013-08-05 11:22:00,76.3,15.9,29.45,North,0,0.0,0.0,1,0.00,,,0.00,WUHU216HW,2013-08-05 15:22:00,
2013-08-05 11:27:00,76.5,15.9,29.45,North,0,0.0,0.0,1,0.00,,,0.00,WUHU216HW,2013-08-05 15:27:00,
2013-08-05 11:32:00,76.9,16.2,29.45,North,0,0.0,0.0,1,0.00,,,0.00,WUHU216HW,2013-08-05 15:32:00,
2013-08-05 11:37:00,77.0,16.4,29.45,North,0,0.0,0.0,1,0.00,,,0.00,WUHU216HW,2013-08-05 15:37:00,
2013-08-05 11:42:00,77.6,16.7,29.45,North,0,0.0,0.0,1,0.00,,,0.00,WUHU216HW,2013-08-05 15:42:00,
2013-08-05 11:47:00,77.9,17.0,29.45,North,0,0.0,0.0,1,0.00,,,0.00,WUHU216HW,2013-08-05 15:47:00,
2013-08-05 11:52:00,78.1,17.1,29.45,North,0,0.0,0.0,1,0.00,,,0.00,WUHU216HW,2013-08-05 15:52:00,
2013-08-05 11:58:00,78.3,17.3,29.44,North,0,0.0,0.0,1,0.00,,,0.00,WUHU216HW,2013-08-05 15:58:00,
2013-08-05 12:03:00,79.2,17.9,29.44,North,0,0.0,0.0,1,0.00,,,0.00,WUHU216HW,2013-08-05 16:03:00,
2013-08-05 12:08:00,79.6,18.2,29.44,North,0,0.0,0.0,1,0.00,,,0.00,WUHU216HW,2013-08-05 16:08:00,
2013-08-05 12:13:00,79.6,18.2,29.44,North,0,0.0,0.0,1,0.00,,,0.00,WUHU216HW,2013-08-05 16:13:00,
2013-08-05 12:18:00,79.7,18.4,29.44,North,0,0.0,0.0,1,0.00,,,0.00,WUHU216HW,2013-08-05 16:18:00,
2013-08-05 12:23:00,80.3,18.8,29.44,North,0,0.0,0.0,1,0.00,,,0.00,WUHU216HW,2013-08-05 16:23:00,
2013-08-05 12:28:00,80.6,19.1,29.43,North,0,0.0,0.0,1,0.00,,,0.00,WUHU216HW,2013-08-05 16:28:00,
2013-08-05 12:34:00,81.0,19.4,29.43,North,0,0.0,0.0,1,0.00,,,0.00,WUHU216HW,2013-08-05 16:34:00,
2013-08-05 12:39:00,81.4,19.6,29.43,North,0,0.0,0.0,3,0.00,,,0.00,WUHU216HW,2013-08-05 16:39:00,
2013-08-05 12:44:00,82.1,23.6,29.43,North,0,0.0,0.0,12,0.00,,,0.00,WUHU216HW,2013-08-05 16:44:00,
2013-08-05 12:50:00,83.0,24.3,29.43,North,0,0.0,0.0,12,0.00,,,0.00,WUHU216HW,2013-08-05 16:50:00,
2013-08-05 12:55:00,83.3,33.0,29.43,North,0,0.0,0.0,17,0.00,,,0.00,WUHU216HW,2013-08-05 16:55:00,
2013-08-05 13:00:00,82.8,38.8,29.43,North,0,0.0,0.0,21,0.00,,,0.00,WUHU216HW,2013-08-05 17:00:00,
2013-08-05 13:05:00,82.8,29.3,29.42,North,0,0.0,0.0,15,0.00,,,0.00,WUHU216HW,2013-08-05 17:05:00,
2013-08-05 13:10:00,82.8,38.8,29.42,North,0,0.0,0.0,21,0.00,,,0.00,WUHU216HW,2013-08-05 17:10:00,
2013-08-05 13:15:00,83.0,38.9,29.42,North,0,0.0,0.0,21,0.00,,,0.00,WUHU216HW,2013-08-05 17:15:00,
2013-08-05 13:20:00,83.0,38.9,29.41,North,0,0.0,0.0,21,0.00,,,0.00,WUHU216HW,2013-08-05 17:20:00,
2013-08-05 13:25:00,81.4,37.6,29.41,North,0,0.0,0.0,21,0.00,,,0.00,WUHU216HW,2013-08-05 17:25:00,
2013-08-05 13:30:00,81.5,30.0,29.40,North,0,0.0,0.0,16,0.00,,,0.00,WUHU216HW,2013-08-05 17:30:00,
2013-08-05 13:35:00,82.1,35.5,29.40,North,0,0.0,0.0,19,0.00,,,0.00,WUHU216HW,2013-08-05 17:35:00,
2013-08-05 13:41:00,82.3,33.9,29.40,North,0,0.0,0.0,18,0.00,,,0.00,WUHU216HW,2013-08-05 17:41:00,
2013-08-05 13:45:00,82.3,37.3,29.40,North,0,0.0,0.0,20,0.00,,,0.00,WUHU216HW,2013-08-05 17:45:00,
2013-08-05 13:51:00,82.3,37.3,29.40,North,0,0.0,0.0,20,0.00,,,0.00,WUHU216HW,2013-08-05 17:51:00,
2013-08-05 13:55:00,81.5,38.8,29.40,North,0,0.0,0.0,22,0.00,,,0.00,WUHU216HW,2013-08-05 17:55:00,
2013-08-05 14:01:00,81.0,38.3,29.40,North,0,0.0,0.0,22,0.00,,,0.00,WUHU216HW,2013-08-05 18:01:00,
2013-08-05 14:06:00,81.2,39.6,29.40,North,0,0.0,0.0,23,0.00,,,0.00,WUHU216HW,2013-08-05 18:06:00,
2013-08-05 14:11:00,81.9,40.1,29.40,North,0,0.0,0.0,23,0.00,,,0.00,WUHU216HW,2013-08-05 18:11:00,
2013-08-05 14:17:00,81.7,41.0,29.40,North,0,0.0,0.0,24,0.00,,,0.00,WUHU216HW,2013-08-05 18:17:00,
2013-08-05 14:22:00,81.4,38.7,29.40,North,0,0.0,0.0,22,0.00,,,0.00,WUHU216HW,2013-08-05 18:22:00,
2013-08-05 14:27:00,81.4,39.7,29.40,North,0,0.0,0.0,23,0.00,,,0.00,WUHU216HW,2013-08-05 18:27:00,
2013-08-05 14:32:00,82.1,40.3,29.39,North,0,0.0,0.0,23,0.00,,,0.00,WUHU216HW,2013-08-05 18:32:00,
2013-08-05 14:37:00,82.4,39.5,29.39,North,0,0.0,0.0,22,0.00,,,0.00,WUHU216HW,2013-08-05 18:37:00,
2013-08-05 14:42:00,82.3,39.4,29.39,North,0,0.0,0.0,22,0.00,,,0.00,WUHU216HW,2013-08-05 18:42:00,
2013-08-05 14:47:00,82.4,39.5,29.39,North,0,0.0,0.0,22,0.00,,,0.00,WUHU216HW,2013-08-05 18:47:00,
2013-08-05 14:52:00,83.2,42.2,29.39,North,0,0.0,0.0,24,0.00,,,0.00,WUHU216HW,2013-08-05 18:52:00,
2013-08-05 14:57:00,82.8,38.8,29.39,North,0,0.0,0.0,21,0.00,,,0.00,WUHU216HW,2013-08-05 18:57:00,
2013-08-05 15:02:00,84.4,44.4,29.39,North,0,0.0,0.0,25,0.00,,,0.00,WUHU216HW,2013-08-05 19:02:00,
2013-08-05 15:07:00,83.7,44.8,29.39,North,0,0.0,0.0,26,0.00,,,0.00,WUHU216HW,2013-08-05 19:07:00,
2013-08-05 15:12:00,82.6,46.0,29.39,North,0,0.0,0.0,28,0.00,,,0.00,WUHU216HW,2013-08-05 19:12:00,
2013-08-05 15:17:00,83.0,43.1,29.39,North,0,0.0,0.0,25,0.00,,,0.00,WUHU216HW,2013-08-05 19:17:00,
2013-08-05 15:22:00,84.6,41.3,29.39,North,0,0.0,0.0,22,0.00,,,0.00,WUHU216HW,2013-08-05 19:22:00,
2013-08-05 15:27:00,83.9,48.2,29.39,North,0,0.0,0.0,29,0.00,,,0.00,WUHU216HW,2013-08-05 19:27:00,
2013-08-05 15:33:00,82.4,47.9,29.38,North,0,0.0,0.0,30,0.00,,,0.00,WUHU216HW,2013-08-05 19:33:00,
2013-08-05 15:38:00,82.3,47.7,29.39,North,0,0.0,0.0,30,0.00,,,0.00,WUHU216HW,2013-08-05 19:38:00,
2013-08-05 15:43:00,82.8,46.1,29.38,North,0,0.0,0.0,28,0.00,,,0.00,WUHU216HW,2013-08-05 19:43:00,
2013-08-05 15:48:00,82.6,47.0,29.39,North,0,0.0,0.0,29,0.00,,,0.00,WUHU216HW,2013-08-05 19:48:00,
2013-08-05 15:53:00,82.4,45.8,29.39,North,0,0.0,0.0,28,0.00,,,0.00,WUHU216HW,2013-08-05 19:53:00,
2013-08-05 15:58:00,82.4,46.8,29.38,North,0,0.0,0.0,29,0.00,,,0.00,WUHU216HW,2013-08-05 19:58:00,
2013-08-05 16:03:00,83.2,47.5,29.38,North,0,0.0,0.0,29,0.00,,,0.00,WUHU216HW,2013-08-05 20:03:00,
2013-08-05 16:08:00,84.1,47.3,29.38,North,0,0.0,0.0,28,0.00,,,0.00,WUHU216HW,2013-08-05 20:08:00,
2013-08-05 16:13:00,84.8,47.9,29.38,North,0,0.0,0.0,28,0.00,,,0.00,WUHU216HW,2013-08-05 20:13:00,
2013-08-05 16:19:00,84.8,49.0,29.37,North,0,0.0,0.0,29,0.00,,,0.00,WUHU216HW,2013-08-05 20:19:00,
2013-08-05 16:24:00,84.8,49.0,29.37,North,0,0.0,0.0,29,0.00,,,0.00,WUHU216HW,2013-08-05 20:24:00,
2013-08-05 16:29:00,83.7,49.1,29.37,North,0,0.0,0.0,30,0.00,,,0.00,WUHU216HW,2013-08-05 20:29:00,
2013-08-05 16:34:00,82.4,47.9,29.37,North,0,0.0,0.0,30,0.00,,,0.00,WUHU216HW,2013-08-05 20:34:00,
2013-08-05 16:39:00,81.9,47.4,29.37,North,0,0.0,0.0,30,0.00,,,0.00,WUHU216HW,2013-08-05 20:39:00,
2013-08-05 16:44:00,81.7,47.4,29.36,North,0,0.0,0.0,30,0.00,,,0.00,WUHU216HW,2013-08-05 20:44:00,
2013-08-05 16:49:00,81.7,47.4,29.36,North,0,0.0,0.0,30,0.00,,,0.00,WUHU216HW,2013-08-05 20:49:00,
2013-08-05 16:54:00,81.4,47.0,29.36,North,0,0.0,0.0,30,0.00,,,0.00,WUHU216HW,2013-08-05 20:54:00,
2013-08-05 16:59:00,81.4,46.0,29.36,North,0,0.0,0.0,29,0.00,,,0.00,WUHU216HW,2013-08-05 20:59:00,
2013-08-05 17:04:00,81.0,45.7,29.36,North,0,0.0,0.0,29,0.00,,,0.00,WUHU216HW,2013-08-05 21:04:00,
2013-08-05 17:10:00,80.8,45.5,29.35,North,0,0.0,0.0,29,0.00,,,0.00,WUHU216HW,2013-08-05 21:10:00,
2013-08-05 17:15:00,80.8,44.5,29.35,North,0,0.0,0.0,28,0.00,,,0.00,WUHU216HW,2013-08-05 21:15:00,
2013-08-05 17:20:00,80.3,45.1,29.36,North,0,0.0,0.0,29,0.00,,,0.00,WUHU216HW,2013-08-05 21:20:00,
2013-08-05 17:25:00,79.7,44.6,29.35,North,0,0.0,0.0,29,0.00,,,0.00,WUHU216HW,2013-08-05 21:25:00,
2013-08-05 17:30:00,79.4,43.2,29.35,North,0,0.0,0.0,28,0.00,,,0.00,WUHU216HW,2013-08-05 21:30:00,
2013-08-05 17:35:00,79.0,39.8,29.35,North,0,0.0,0.0,25,0.00,,,0.00,WUHU216HW,2013-08-05 21:35:00,
2013-08-05 17:40:00,78.8,36.5,29.35,North,0,0.0,0.0,22,0.00,,,0.00,WUHU216HW,2013-08-05 21:40:00,
2013-08-05 17:46:00,78.5,38.3,29.34,North,0,0.0,0.0,24,0.00,,,0.00,WUHU216HW,2013-08-05 21:46:00,
2013-08-05 17:51:00,78.1,34.8,29.34,North,0,0.0,0.0,21,0.00,,,0.00,WUHU216HW,2013-08-05 21:51:00,
2013-08-05 17:56:00,77.8,28.5,29.34,North,0,0.0,0.0,17,0.00,,,0.00,WUHU216HW,2013-08-05 21:56:00,
2013-08-05 18:01:00,77.4,24.9,29.34,North,0,0.0,0.0,15,0.00,,,0.00,WUHU216HW,2013-08-05 22:01:00,
2013-08-05 18:06:00,77.2,29.8,29.34,North,0,0.0,0.0,18,0.00,,,0.00,WUHU216HW,2013-08-05 22:06:00,
2013-08-05 18:11:00,77.0,29.6,29.33,North,0,0.0,0.0,18,0.00,,,0.00,WUHU216HW,2013-08-05 22:11:00,
2013-08-05 18:17:00,77.0,28.0,29.33,North,0,0.0,0.0,17,0.00,,,0.00,WUHU216HW,2013-08-05 22:17:00,
2013-08-05 18:22:00,77.0,26.3,29.33,North,0,0.0,0.0,16,0.00,,,0.00,WUHU216HW,2013-08-05 22:22:00,
2013-08-05 18:27:00,76.9,24.5,29.33,North,0,0.0,0.0,15,0.00,,,0.00,WUHU216HW,2013-08-05 22:27:00,
2013-08-05 18:32:00,76.9,24.5,29.33,North,0,0.0,0.0,15,0.00,,,0.00,WUHU216HW,2013-08-05 22:32:00,
2013-08-05 18:37:00,76.9,19.5,29.34,North,0,0.0,0.0,12,0.00,,,0.00,WUHU216HW,2013-08-05 22:37:00,
2013-08-05 18:42:00,76.7,19.5,29.34,North,0,0.0,0.0,12,0.00,,,0.00,WUHU216HW,2013-08-05 22:42:00,
2013-08-05 18:47:00,76.7,21.1,29.34,North,0,0.0,0.0,13,0.00,,,0.00,WUHU216HW,2013-08-05 22:47:00,
2013-08-05 18:52:00,76.7,19.5,29.34,North,0,0.0,0.0,12,0.00,,,0.00,WUHU216HW,2013-08-05 22:52:00,
2013-08-05 18:57:00,76.7,16.1,29.34,North,0,0.0,0.0,10,0.00,,,0.00,WUHU216HW,2013-08-05 22:57:00,
2013-08-05 19:02:00,76.5,15.9,29.34,North,0,0.0,0.0,10,0.00,,,0.00,WUHU216HW,2013-08-05 23:02:00,
2013-08-05 19:07:00,76.5,15.9,29.34,North,0,0.0,0.0,10,0.00,,,0.00,WUHU216HW,2013-08-05 23:07:00,
2013-08-05 19:12:00,76.3,15.9,29.35,North,0,0.0,0.0,6,0.00,,,0.00,WUHU216HW,2013-08-05 23:12:00,
2013-08-05 19:17:00,76.0,15.5,29.35,North,0,0.0,0.0,1,0.00,,,0.00,WUHU216HW,2013-08-05 23:17:00,
2013-08-05 19:22:00,75.8,15.4,29.36,North,0,0.0,0.0,1,0.00,,,0.00,WUHU216HW,2013-08-05 23:22:00,
2013-08-05 19:28:00,75.2,14.9,29.36,North,0,0.0,0.0,1,0.00,,,0.00,WUHU216HW,2013-08-05 23:28:00,
2013-08-05 19:33:00,73.4,13.7,29.36,North,0,0.0,0.0,1,0.00,,,0.00,WUHU216HW,2013-08-05 23:33:00,
2013-08-05 19:38:00,72.2,12.7,29.35,North,0,0.0,0.0,1,0.00,,,0.00,WUHU216HW,2013-08-05 23:38:00,
2013-08-05 19:43:00,71.6,12.2,29.35,North,0,0.0,0.0,1,0.00,,,0.00,WUHU216HW,2013-08-05 23:43:00,
2013-08-05 19:48:00,71.3,12.0,29.35,North,0,0.0,0.0,1,0.00,,,0.00,WUHU216HW,2013-08-05 23:48:00,
2013-08-05 19:53:00,70.7,11.5,29.35,North,0,0.0,0.0,1,0.00,,,0.00,WUHU216HW,2013-08-05 23:53:00,
2013-08-05 19:58:00,70.6,11.3,29.34,North,0,0.0,0.0,1,0.00,,,0.00,WUHU216HW,2013-08-05 23:58:00,
2013-08-05 20:04:00,70.6,11.3,29.34,North,0,0.0,0.0,1,0.00,,,0.00,WUHU216HW,2013-08-06 00:04:00,
2013-08-05 20:09:00,70.2,11.1,29.34,North,0,0.0,0.0,1,0.00,,,0.00,WUHU216HW,2013-08-06 00:09:00,
2013-08-05 20:14:00,69.5,10.5,29.34,North,0,0.0,0.0,1,0.00,,,0.00,WUHU216HW,2013-08-06 00:14:00,
2013-08-05 20:19:00,69.1,10.3,29.33,North,0,0.0,0.0,1,0.00,,,0.00,WUHU216HW,2013-08-06 00:19:00,
2013-08-05 20:24:00,68.8,10.1,29.33,North,0,0.0,0.0,1,0.00,,,0.00,WUHU216HW,2013-08-06 00:24:00,
2013-08-05 20:29:00,68.4,9.8,29.32,North,0,0.0,0.0,1,0.00,,,0.00,WUHU216HW,2013-08-06 00:29:00,
2013-08-05 20:34:00,68.2,9.6,29.32,North,0,0.0,0.0,1,0.00,,,0.00,WUHU216HW,2013-08-06 00:34:00,
2013-08-05 20:39:00,68.0,9.5,29.32,North,0,0.0,0.0,1,0.00,,,0.00,WUHU216HW,2013-08-06 00:39:00,
2013-08-05 20:44:00,67.7,9.3,29.32,North,0,0.0,0.0,1,0.00,,,0.00,WUHU216HW,2013-08-06 00:44:00,
2013-08-05 20:50:00,67.3,9.0,29.32,North,0,0.0,0.0,1,0.00,,,0.00,WUHU216HW,2013-08-06 00:50:00,
2013-08-05 20:55:00,67.1,8.8,29.32,North,0,0.0,0.0,1,0.00,,,0.00,WUHU216HW,2013-08-06 00:55:00,
2013-08-05 21:00:00,66.8,8.6,29.32,North,0,0.0,0.0,1,0.00,,,0.00,WUHU216HW,2013-08-06 01:00:00,
2013-08-05 21:05:00,66.6,8.4,29.32,North,0,0.0,0.0,1,0.00,,,0.00,WUHU216HW,2013-08-06 01:05:00,
2013-08-05 21:10:00,66.4,8.3,29.32,North,0,0.0,0.0,1,0.00,,,0.00,WUHU216HW,2013-08-06 01:10:00,
2013-08-05 21:15:00,66.4,8.3,29.32,North,0,0.0,0.0,1,0.00,,,0.00,WUHU216HW,2013-08-06 01:15:00,
2013-08-05 21:20:00,66.2,8.1,29.32,North,0,0.0,0.0,1,0.00,,,0.00,WUHU216HW,2013-08-06 01:20:00,
2013-08-05 21:26:00,66.2,8.1,29.33,North,0,0.0,0.0,1,0.00,,,0.00,WUHU216HW,2013-08-06 01:26:00,
2013-08-05 21:31:00,66.2,8.1,29.34,North,0,0.0,0.0,1,0.00,,,0.00,WUHU216HW,2013-08-06 01:31:00,
2013-08-05 21:36:00,66.2,8.1,29.33,North,0,0.0,0.0,1,0.00,,,0.00,WUHU216HW,2013-08-06 01:36:00,
2013-08-05 21:41:00,66.2,8.1,29.32,North,0,0.0,0.0,1,0.00,,,0.00,WUHU216HW,2013-08-06 01:41:00,
2013-08-05 21:46:00,66.2,8.1,29.32,North,0,0.0,0.0,1,0.00,,,0.00,WUHU216HW,2013-08-06 01:46:00,
2013-08-05 21:51:00,66.1,7.9,29.32,North,0,0.0,0.0,1,0.00,,,0.00,WUHU216HW,2013-08-06 01:51:00,
2013-08-05 21:56:00,65.9,7.8,29.32,North,0,0.0,0.0,1,0.00,,,0.00,WUHU216HW,2013-08-06 01:56:00,
2013-08-05 22:01:00,65.9,7.8,29.32,North,0,0.0,0.0,1,0.00,,,0.00,WUHU216HW,2013-08-06 02:01:00,
2013-08-05 22:07:00,65.9,7.8,29.32,North,0,0.0,0.0,1,0.00,,,0.00,WUHU216HW,2013-08-06 02:07:00,
2013-08-05 22:12:00,65.7,7.7,29.32,North,0,0.0,0.0,1,0.00,,,0.00,WUHU216HW,2013-08-06 02:12:00,
2013-08-05 22:17:00,65.7,7.7,29.32,North,0,0.0,0.0,1,0.00,,,0.00,WUHU216HW,2013-08-06 02:17:00,
2013-08-05 22:22:00,65.5,7.6,29.32,North,0,0.0,0.0,1,0.00,,,0.00,WUHU216HW,2013-08-06 02:22:00,
2013-08-05 22:27:00,65.5,7.6,29.32,North,0,0.0,0.0,1,0.00,,,0.00,WUHU216HW,2013-08-06 02:27:00,
2013-08-05 22:32:00,65.3,7.4,29.32,North,0,0.0,0.0,1,0.00,,,0.00,WUHU216HW,2013-08-06 02:32:00,
2013-08-05 22:37:00,65.3,7.4,29.32,North,0,0.0,0.0,1,0.00,,,0.00,WUHU216HW,2013-08-06 02:37:00,
2013-08-05 22:42:00,65.2,7.2,29.32,North,0,0.0,0.0,1,0.00,,,0.00,WUHU216HW,2013-08-06 02:42:00,
2013-08-05 22:47:00,65.2,7.2,29.32,North,0,0.0,0.0,1,0.00,,,0.00,WUHU216HW,2013-08-06 02:47:00,
2013-08-05 22:53:00,65.2,7.2,29.32,North,0,0.0,0.0,1,0.00,,,0.00,WUHU216HW,2013-08-06 02:53:00,
2013-08-05 22:58:00,65.0,7.1,29.32,North,0,0.0,0.0,1,0.00,,,0.00,WUHU216HW,2013-08-06 02:58:00,
2013-08-05 23:03:00,64.8,6.9,29.33,North,0,0.0,0.0,1,0.00,,,0.00,WUHU216HW,2013-08-06 03:03:00,
2013-08-05 23:08:00,64.8,6.9,29.32,North,0,0.0,0.0,1,0.00,,,0.00,WUHU216HW,2013-08-06 03:08:00,
2013-08-05 23:13:00,64.6,6.9,29.32,North,0,0.0,0.0,1,0.00,,,0.00,WUHU216HW,2013-08-06 03:13:00,
2013-08-05 23:18:00,64.4,6.7,29.33,North,0,0.0,0.0,1,0.00,,,0.00,WUHU216HW,2013-08-06 03:18:00,
2013-08-05 23:23:00,64.4,6.7,29.33,North,0,0.0,0.0,1,0.00,,,0.00,WUHU216HW,2013-08-06 03:23:00,
2013-08-05 23:28:00,64.3,6.6,29.33,North,0,0.0,0.0,1,0.00,,,0.00,WUHU216HW,2013-08-06 03:28:00,
2013-08-05 23:33:00,64.1,6.4,29.33,North,0,0.0,0.0,1,0.00,,,0.00,WUHU216HW,2013-08-06 03:33:00,
2013-08-05 23:38:00,64.1,6.4,29.33,North,0,0.0,0.0,1,0.00,,,0.00,WUHU216HW,2013-08-06 03:38:00,
2013-08-05 23:43:00,63.9,6.3,29.33,North,0,0.0,0.0,1,0.00,,,0.00,WUHU216HW,2013-08-06 03:43:00,
2013-08-05 23:49:00,63.7,6.1,29.33,North,0,0.0,0.0,1,0.00,,,0.00,WUHU216HW,2013-08-06 03:49:00,
2013-08-05 23:54:00,63.7,6.1,29.33,North,0,0.0,0.0,1,0.00,,,0.00,WUHU216HW,2013-08-06 03:54:00,
2013-08-05 23:59:00,63.7,6.1,29.33,North,0,0.0,0.0,1,0.00,,,0.00,WUHU216HW,2013-08-06 03:59:00,